Language selection

My Weather Profile Weather Topics  | 

Lake Nipigon: Past 24 Hour Conditions

 

Little Flatland Island

12:00 AM EDT 28 September 2021
Disclaimer

This table is a summary of hourly weather conditions for the past 24 hours.
Please note that these observations might not always be representative of weather conditions over their associated marine area.

Date / Time
(EDT)
Wind(knots) Conditions Visibility(km) Pressure(kPa) Air tempC) Relative humidity(%) Dew pointC)
28 September 2021
0:00 SSW 4 N/A N/A 101.4 12 83 10
27 September 2021
23:00 SSW 5 N/A N/A 101.4 12 87 9
22:00 SSW 3 N/A N/A 101.4 11 86 9
21:00 E 2 N/A N/A 101.4 12 78 8
20:00 S 3 N/A N/A 101.4 12 76 8
19:00 SSE 2 N/A N/A 101.4 13 71 8
18:00 SE 4 N/A N/A 101.4 13 66 7
17:00 WNW 4 N/A N/A 101.4 14 61 6
16:00 W 6 N/A N/A 101.4 13 63 6
15:00 W 11 N/A N/A 101.5 12 68 6
14:00 WNW 4 N/A N/A 101.5 12 67 6
13:00 NW 4 N/A N/A 101.5 11 67 5
12:00 ESE 2 N/A N/A 101.5 10 74 5
11:00 NE 6 N/A N/A 101.4 9 80 6
10:00 ENE 7 N/A N/A 101.4 9 83 6
9:00 NE 8 N/A N/A 101.4 9 81 6
8:00 NE 10 N/A N/A 101.3 9 82 6
7:00 NE 10 N/A N/A 101.3 9 84 7
6:00 NE 10 N/A N/A 101.2 9 85 7
5:00 NNE 11 N/A N/A 101.2 9 83 7
4:00 NNE 11 N/A N/A 101.1 10 83 7
3:00 NE 10 N/A N/A 101.1 10 82 7
2:00 NE 14 N/A N/A 101.0 10 81 7
1:00 NNE 19 N/A N/A 101.0 11 80 7
0:00 NE 17 N/A N/A 100.9 12 78 9

Zoom-in to make a selection

Map of Great Lakes - Lake Superior marine weather areas Mid Superior - 45001 East Superior - 45004 West Superior - 45006 Slate Island - 45136 Lake Of the Woods - 45148 Kenora Airport Royal Island Armstrong Airport Caribou Island Marathon Airport Pukaskwa National Park Thunder Bay Airport Welcome Island Little Flatland Island Sault Ste. Marie Airport Wawa Airport
Legend:
buoy Buoy
land station Land Station

Great Lakes - Lake Superior Area

Another Region

What we are doing

Date modified: